SCP
0 1 2 2 2 1 1 1 1 2 2 1 1 2 2 2 2 2 2 1 1 1 1 1 1 1 1 2 2 2 2 2 2 2 2 2 2 2 2 2 2 1 1
0 1 2 2 2 2 1 1 2 2 2 2 1 1 2 2 2 2 2 1 1 1 1 1 1 1 1 1 2 2 2 2 2 2 2 2 2 2 2 2 2 1 1
1 1 2 2 2 2 2 2 2 2 2 2 2 1 1 1 1 1 1 1 1 1 1 1 1 1 1 1 2 2 2 2 2 2 2 2 2 2 2 2 2 1 1
1 1 2 2 2 2 2 2 2 2 2 2 2 2 1 1 1 1 1 1 1 1 2 2 2 2 1 1 1 2 2 2 2 2 2 2 2 2 2 2 2 2 2
1 1 2 2 3 3 3 2 2 2 2 2 2 2 1 1 1 1 1 1 1 1 2 2 2 2 1 1 1 1 1 2 2 2 2 2 2 2 2 2 2 2 2
1 1 2 3 3 3 3 3 3 3 2 2 2 2 2 1 1 1 1 1 1 1 1 2 2 1 1 1 1 1 1 1 1 2 2 2 1 1 2 2 2 2 2
2 2 2 3 3 4 3 3 3 3 3 2 2 2 2 2 1 1 1 1 1 1 1 1 1 2 1 1 1 1 1 1 1 1 1 1 1 1 1 2 2 2 2
2 2 2 3 4 4 3 3 3 3 3 3 2 2 2 2 1 1 1 1 1 1 1 1 1 2 2 1 1 1 1 1 1 1 1 1 1 1 1 1 2 2 2
1 2 2 3 4 4 4 3 3 3 3 3 3 3 2 2 1 1 1 1 1 1 1 1 1 1 2 2 1 1 1 1 1 1 1 1 1 1 1 1 2 2 2
1 2 2 3 3 3 3 3 3 4 3 3 2 2 2 1 1 1 1 1 1 1 1 1 1 1 1 2 2 1 1 1 1 1 1 1 1 1 1 1 1 2 2
1 1 2 3 3 3 3 3 3 3 2 2 1 1 1 1 1 1 1 1 1 1 1 1 1 1 1 1 1 1 1 1 1 1 1 1 1 1 1 1 1 1 2
1 2 2 2 2 2 2 2 2 2 1 1 1 1 1 1 0 0 0 1 1 1 1 1 1 1 1 1 1 1 1 1 1 1 1 1 1 1 1 1 1 1 1
1 1 2 2 2 2 2 1 1 1 1 1 1 1 1 0 0 0 0 0 0 1 1 1 1 1 0 0 0 0 0 0 0 1 1 1 1 1 1 1 1 1 1
1 1 2 2 2 2 2 1 1 1 1 1 1 1 0 0 0 0 0 0 0 0 0 0 0 0 0 0 0 0 0 0 0 1 0 0 1 1 1 1 1 1 1
1 1 2 2 2 2 2 2 1 1 1 0 0 1 1 0 0 0 0 0 0 0 0 0 0 0 0 0 0 0 0 0 0 0 0 0 1 1 1 1 1 1 1
1 1 2 2 2 2 2 2 1 1 1 0 0 0 0 0 0 0 0 0 0 0 0 0 0 0 0 0 0 0 0 0 0 0 0 0 1 1 1 2 1 1 1
1 1 2 2 2 2 2 2 1 1 1 0 0 0 0 0 0 0 0 0 0 0 0 0 0 0 0 0 0 0 0 0 0 0 0 0 1 1 1 1 1 1 1
1 1 2 2 2 2 2 2 1 1 1 0 0 0 0 0 0 0 0 0 0 0 0 0 0 0 0 0 0 0 0 0 0 0 0 0 0 1 1 1 1 1 1
1 2 2 2 2 2 2 1 1 1 0 0 0 0 0 0 0 0 0 0 0 0 0 0 0 0 0 0 0 0 0 0 0 0 0 0 0 0 1 0 1 1 1
2 2 2 2 2 2 2 1 1 1 0 0 0 0 0 0 0 0 0 0 0 0 0 0 0 0 0 0 0 0 0 0 0 0 0 0 0 0 0 0 0 0 1
2 2 2 2 2 2 2 1 1 1 0 0 0 0 0 0 0 0 0 0 0 0 0 0 0 0 0 0 0 0 0 0 0 0 0 0 0 0 0 0 0 0 0
1 2 2 2 2 2 2 1 1 1 0 0 0 0 0 0 0 0 0 0 0 0 0 0 0 0 0 0 0 0 0 0 0 0 0 0 0 0 0 0 0 0 0
1 1 2 2 3 2 2 2 1 1 0 0 0 0 0 0 0 0 0 0 0 0 0 0 0 0 0 0 0 0 0 0 0 0 0 0 0 0 0 0 0 0 0
0 1 2 3 3 3 3 2 1 1 0 0 0 0 0 0 0 0 0 0 0 0 0 0 0 0 0 0 0 0 0 0 0 0 0 0 0 0 0 0 0 0 0
0 0 1 2 3 4 3 3 2 1 1 1 0 0 0 0 0 0 0 0 0 0 0 0 0 0 0 0 0 0 0 0 0 0 0 0 0 0 0 0 0 0 0
0 0 1 2 4 4 4 3 2 2 2 1 1 1 0 0 0 0 0 0 0 0 0 0 0 0 0 0 0 0 0 0 0 0 0 0 0 0 0 0 0 0 0
Wind_Speed
2 3 4 4 5 6 7 8 8 9 9 9 9 9 9 9 8 8 8 7 7 6 6 6 6 7 7 8 8 8 8 9 9 9 9 9 9 10 10 10 9 6 10
1 2 3 5 6 6 7 7 8 9 9 8 8 8 8 9 8 8 8 7 7 7 7 7 6 7 7 7 7 7 8 8 8 8 7 7 8 9 9 9 8 6 9
2 2 3 5 6 6 6 7 7 8 8 8 8 8 8 8 8 8 8 8 7 7 6 6 6 6 6 7 7 7 7 7 7 7 6 3 4 7 7 7 7 8 8
2 3 4 6 6 7 7 8 8 8 8 8 8 8 8 8 9 8 8 8 7 8 7 6 6 6 6 6 6 6 6 6 6 6 3 2 2 5 6 6 6 7 7
4 3 4 6 6 7 7 8 8 8 8 8 8 8 8 9 9 9 8 8 7 7 7 7 7 7 6 6 6 6 6 6 6 4 2 2 2 4 5 6 6 6 6
4 4 4 6 6 7 8 8 8 8 8 9 9 8 9 9 9 9 8 8 8 7 7 7 7 7 7 6 6 5 5 5 4 2 2 1 1 2 4 5 5 5 6
3 4 4 7 7 7 7 8 8 8 8 9 8 9 9 9 10 9 8 8 8 7 7 7 7 7 6 6 6 6 5 5 3 2 2 1 1 2 3 4 4 5 5
3 4 4 6 7 7 7 7 8 8 8 8 8 8 8 9 9 9 9 8 8 7 7 7 7 7 7 6 6 6 6 5 3 2 1 1 1 2 3 4 4 5 5
4 4 4 4 4 6 7 7 8 8 8 8 8 9 9 9 9 9 9 8 8 7 7 7 6 6 6 6 6 6 6 6 3 1 1 1 1 1 2 3 4 4 4
4 4 4 5 5 4 4 7 8 9 9 9 9 10 10 9 9 9 8 8 8 7 7 7 7 6 6 6 6 6 6 5 2 2 1 1 1 1 2 3 3 4 3
4 4 4 4 4 4 3 6 7 7 8 8 7 9 8 5 5 6 7 8 8 8 7 7 7 7 6 5 6 6 5 2 3 2 1 2 1 2 2 3 3 4 4
3 3 3 3 3 4 3 3 3 4 4 5 4 5 4 4 4 5 8 9 9 9 8 8 7 7 5 3 4 5 2 2 2 2 2 3 2 3 3 3 3 4 3
2 3 3 3 3 3 2 2 2 2 3 4 5 4 3 3 3 4 3 4 5 6 4 5 5 3 3 3 2 2 2 2 1 2 3 4 3 3 3 3 4 4 4
3 3 3 2 3 3 2 2 2 2 2 3 3 4 3 2 3 3 2 3 3 3 3 3 2 3 3 3 3 3 3 2 2 2 2 5 4 3 3 3 4 5 4
3 3 3 3 3 2 2 2 3 2 2 2 3 3 3 2 2 2 2 2 3 2 2 3 3 3 3 3 3 3 3 3 3 3 2 5 5 4 4 3 3 4 3
2 2 3 3 3 3 3 2 2 2 2 2 3 3 3 2 2 2 2 2 2 2 2 2 2 2 2 2 3 3 3 3 3 3 2 4 5 5 4 3 2 2 2
2 2 2 3 4 3 3 3 2 2 2 3 3 3 4 3 2 2 1 2 2 2 2 2 2 2 2 3 3 3 2 2 2 3 3 2 3 4 4 3 2 1 1
2 2 3 3 3 3 3 3 2 2 2 2 2 3 4 4 3 2 2 2 2 2 2 1 2 2 2 3 3 3 3 3 3 2 2 2 2 2 3 4 3 3 2
2 2 2 3 3 2 3 2 2 2 2 2 2 2 3 4 4 2 2 2 2 2 2 2 2 1 2 2 2 3 3 3 3 3 2 2 2 2 2 3 5 4 4
2 2 2 2 2 2 2 2 2 2 2 2 2 2 3 3 4 3 2 2 2 2 2 2 2 2 1 1 2 3 3 2 2 2 2 2 2 1 1 2 2 3 5
3 2 2 2 2 2 1 1 1 1 1 2 2 3 3 4 4 3 2 2 2 2 2 2 1 2 2 2 1 2 2 2 2 2 2 2 2 2 2 2 1 1 2
2 2 2 2 2 2 1 1 0 1 1 1 2 3 3 3 3 3 2 2 2 2 2 2 2 1 1 2 1 1 2 3 3 3 2 2 3 2 2 2 2 2 2
1 2 2 2 2 2 2 1 1 2 2 2 2 2 3 3 3 2 3 2 2 1 1 2 1 1 1 1 1 0 1 1 2 2 3 3 3 3 2 2 2 2 2
1 1 1 1 2 2 1 1 1 1 1 2 2 2 3 3 2 2 2 2 2 1 1 1 1 1 1 1 1 1 1 1 1 2 2 2 3 3 3 2 2 2 2
1 1 1 1 1 2 1 1 0 1 1 2 2 3 3 3 2 2 2 2 2 1 1 2 2 1 1 1 1 1 1 1 0 1 2 3 3 2 2 2 1 1 1
1 1 1 1 2 2 1 1 1 1 2 2 3 3 3 2 2 2 2 2 2 1 1 2 2 2 1 1 1 1 1 0 1 1 2 2 2 2 2 1 1 1 1
Wind_Direction
325 324 347 42 56 56 54 54 57 58 56 54 53 56 55 55 54 56 59 61 66 75 78 80 81 82 84 91 88 87 87 86 83 83 87 94 100 102 100 96 93 89 95
306 329 18 52 61 61 60 59 61 60 59 55 53 53 54 54 52 52 53 57 60 66 71 74 80 83 85 88 87 86 88 87 81 75 75 81 92 103 103 102 101 97 99
40 11 41 53 57 57 58 63 63 59 59 57 55 53 52 52 50 51 53 53 55 59 62 65 73 80 84 84 84 88 88 87 81 72 66 60 80 100 104 105 104 102 101
59 35 44 52 57 57 60 63 60 57 57 57 57 53 50 49 49 50 50 50 54 56 55 57 64 71 76 83 86 88 87 85 81 71 63 57 68 98 105 104 104 104 106
56 36 41 55 60 59 63 60 58 54 56 58 58 53 49 48 48 49 47 46 49 52 53 55 57 60 66 72 78 85 85 84 75 67 63 62 65 97 110 107 103 102 106
57 38 43 56 61 60 60 59 56 54 56 58 57 53 49 47 46 46 45 45 46 49 49 51 53 54 57 61 65 73 80 79 72 67 59 66 84 101 117 114 108 107 105
62 41 44 53 57 58 59 58 55 55 58 58 56 53 49 46 43 41 40 40 45 48 47 47 50 53 52 53 57 59 63 66 73 71 60 62 99 120 132 129 123 117 117
66 46 43 48 48 48 52 54 52 56 57 55 53 52 49 45 41 38 35 34 38 46 46 44 45 48 48 45 46 50 50 45 55 64 51 50 93 130 153 143 138 131 126
55 48 37 32 37 40 43 48 49 49 53 52 49 46 44 42 40 36 33 32 34 40 42 41 41 40 41 42 41 43 43 39 39 40 22 29 50 152 162 153 147 144 138
50 44 34 27 29 29 34 45 44 44 45 45 43 40 39 37 35 33 28 28 32 33 35 36 36 35 34 39 41 38 36 30 29 21 354 354 342 236 200 169 165 163 159
39 32 31 29 25 25 33 39 41 41 37 38 37 35 35 31 28 26 21 26 29 28 29 32 31 30 29 32 36 32 29 19 5 355 326 325 280 247 228 197 178 175 177
18 17 24 29 25 28 31 32 32 34 29 30 31 28 28 26 25 25 22 24 24 24 26 29 31 26 21 12 21 27 17 3 353 332 326 324 284 259 237 218 200 190 182
8 13 9 18 25 29 24 28 25 28 27 28 29 25 26 27 23 24 19 15 14 18 20 18 20 16 12 6 6 9 1 358 340 325 329 328 301 272 248 228 213 201 190
31 14 6 18 27 26 33 35 25 24 29 27 19 21 25 25 22 15 17 5 9 8 10 11 12 12 9 8 9 6 1 351 339 327 331 335 317 298 278 251 215 207 199
32 10 1 18 29 26 35 37 33 16 23 23 23 18 22 25 17 12 3 6 7 4 6 7 7 9 8 5 7 9 359 347 339 331 328 338 324 312 299 277 233 216 201
22 4 7 25 27 37 38 41 37 21 21 26 21 13 15 17 11 7 4 6 2 354 355 6 360 2 360 0 4 0 350 335 334 332 329 331 336 327 315 307 270 231 211
10 3 14 37 36 39 39 35 40 34 31 30 18 15 15 14 2 358 4 5 350 343 355 14 16 16 9 3 359 349 343 338 332 332 336 332 330 337 340 343 346 322 263
22 17 15 27 35 35 36 36 35 37 36 27 15 14 11 8 6 1 6 1 346 347 359 8 24 24 14 2 353 348 347 346 342 336 344 344 342 340 350 8 9 6 342
28 24 26 28 32 30 33 34 37 39 38 22 14 15 4 2 2 360 356 354 354 2 5 5 17 20 17 360 349 346 348 343 339 347 353 348 347 349 347 6 17 13 6
33 30 36 30 29 27 31 34 32 36 29 24 18 11 4 360 2 3 0 356 4 13 12 11 14 19 19 351 352 348 338 330 337 349 344 348 353 357 358 5 12 7 12
31 24 21 25 16 25 20 14 10 355 347 4 6 10 7 2 1 5 2 358 1 13 1 359 6 24 8 349 358 340 336 351 7 4 360 7 3 359 22 18 22 18 3
20 11 14 14 9 13 8 323 298 305 313 330 347 359 2 359 360 3 359 350 354 11 13 8 8 16 345 356 16 329 330 342 5 7 7 21 7 7 28 27 31 29 17
358 350 351 356 3 2 11 17 17 17 2 358 350 347 346 349 357 356 355 351 351 16 5 348 354 3 296 323 357 237 216 260 319 336 357 12 9 6 6 21 32 30 28
306 319 338 355 2 2 23 39 47 16 335 315 314 315 326 339 347 347 354 352 345 348 336 315 349 319 275 291 316 312 273 217 236 313 327 359 7 1 1 8 14 16 24
303 313 320 343 0 9 23 26 43 354 318 311 318 323 324 327 336 340 344 344 336 329 321 316 325 325 287 272 279 290 322 340 319 228 289 324 343 339 339 344 349 350 3
347 348 344 357 358 7 15 359 335 313 317 329 331 320 320 321 317 324 326 316 308 304 300 299 300 303 290 300 299 293 241 242 264 258 260 292 305 310 319 328 330 343 346